Location: Recife
(8.0585°S, 34.8848°W)
Time: 07:51:30
(UTC-03:00)

Courier 1B Rocket - Pass Details

Date: 19 April 2026
Orbit: 920 x 1201 km, 28.2° (Epoch: 13 May)

Event Time Altitude Azimuth Distance (km) Brightness Sun altitude
Rises 00:40:13 0° 329° (NNW) 3,595 - -69.7°
Reaches altitude 10° 00:43:41 10° 346° (NNW) 2,623 - -68.8°
Maximum altitude 00:47:58 19° 30° (NNE) 2,032 - -67.8°
Drops below altitude 10° 00:52:13 10° 73° (ENE) 2,602 - -66.8°
Sets 00:55:37 0° 91° (E) 3,557 - -65.9°
